Time,TemperatureF,DewpointF,PressureIn,WindDirection,WindDirectionDegrees,WindSpeedMPH,WindSpeedGustMPH,Humidity,HourlyPrecipIn,Conditions,Clouds,dailyrainin,SoftwareType,DateUTC
2013-03-20 00:00:00,9.9,0.1,30.23,SW,225,1.1,4.7,64,0.00,,,0.00,WUHU216HW,2013-03-20 05:00:00,
2013-03-20 00:05:00,9.7,-0.1,30.23,NW,315,1.1,5.6,64,0.00,,,0.00,WUHU216HW,2013-03-20 05:05:00,
2013-03-20 00:10:00,9.7,-0.1,30.23,SW,225,2.9,5.6,64,0.00,,,0.00,WUHU216HW,2013-03-20 05:10:00,
2013-03-20 00:15:00,9.7,-0.1,30.23,ESE,113,2.5,4.5,64,0.00,,,0.00,WUHU216HW,2013-03-20 05:15:00,
2013-03-20 00:20:00,9.7,-0.1,30.23,NNW,338,1.1,4.5,64,0.00,,,0.00,WUHU216HW,2013-03-20 05:20:00,
2013-03-20 00:25:00,9.5,-0.3,30.23,NE,45,2.0,5.4,64,0.00,,,0.00,WUHU216HW,2013-03-20 05:25:00,
2013-03-20 00:30:00,9.7,-0.1,30.23,SE,135,3.1,9.8,64,0.00,,,0.00,WUHU216HW,2013-03-20 05:30:00,
2013-03-20 00:35:00,9.7,-0.4,30.23,NNE,23,2.9,9.8,63,0.00,,,0.00,WUHU216HW,2013-03-20 05:35:00,
2013-03-20 00:40:00,9.7,-0.4,30.23,NNE,23,1.3,8.3,63,0.00,,,0.00,WUHU216HW,2013-03-20 05:40:00,
2013-03-20 00:45:00,9.7,-0.1,30.23,NNW,338,2.9,5.1,64,0.00,,,0.00,WUHU216HW,2013-03-20 05:45:00,
2013-03-20 00:50:00,9.5,-0.6,30.23,West,270,4.3,5.4,63,0.00,,,0.00,WUHU216HW,2013-03-20 05:50:00,
2013-03-20 00:55:00,9.5,-0.6,30.23,NW,315,5.4,5.4,63,0.00,,,0.00,WUHU216HW,2013-03-20 05:55:00,
2013-03-20 01:00:00,9.4,-0.8,30.23,NNW,338,1.3,5.4,63,0.00,,,0.00,WUHU216HW,2013-03-20 06:00:00,
2013-03-20 01:05:00,9.4,-0.8,30.23,East,90,2.5,5.1,63,0.00,,,0.00,WUHU216HW,2013-03-20 06:05:00,
2013-03-20 01:10:00,9.2,-1.0,30.23,West,270,4.7,4.7,63,0.00,,,0.00,WUHU216HW,2013-03-20 06:10:00,
2013-03-20 01:15:00,9.0,-0.8,30.23,NW,315,3.4,6.3,64,0.00,,,0.00,WUHU216HW,2013-03-20 06:15:00,
2013-03-20 01:20:00,9.0,-0.8,30.23,SW,225,2.9,6.3,64,0.00,,,0.00,WUHU216HW,2013-03-20 06:20:00,
2013-03-20 01:25:00,9.0,-0.8,30.23,North,0,1.6,4.0,64,0.00,,,0.00,WUHU216HW,2013-03-20 06:25:00,
2013-03-20 01:30:00,8.8,-1.0,30.23,ENE,68,1.8,5.1,64,0.00,,,0.00,WUHU216HW,2013-03-20 06:30:00,
2013-03-20 01:35:00,8.8,-1.0,30.23,SW,225,2.2,5.1,64,0.00,,,0.00,WUHU216HW,2013-03-20 06:35:00,
2013-03-20 01:40:00,8.6,-1.2,30.23,West,270,1.1,4.0,64,0.00,,,0.00,WUHU216HW,2013-03-20 06:40:00,
2013-03-20 01:45:00,8.6,-1.2,30.23,WSW,248,2.5,3.1,64,0.00,,,0.00,WUHU216HW,2013-03-20 06:45:00,
2013-03-20 01:50:00,8.5,-1.3,30.23,WNW,293,3.4,5.4,64,0.00,,,0.00,WUHU216HW,2013-03-20 06:50:00,
2013-03-20 01:55:00,8.5,-1.3,30.23,WNW,293,2.9,5.4,64,0.00,,,0.00,WUHU216HW,2013-03-20 06:55:00,
2013-03-20 02:00:00,8.3,-1.5,30.23,West,270,1.6,3.8,64,0.00,,,0.00,WUHU216HW,2013-03-20 07:00:00,
2013-03-20 02:05:00,8.3,-1.5,30.23,WSW,248,2.0,3.8,64,0.00,,,0.00,WUHU216HW,2013-03-20 07:05:00,
2013-03-20 02:10:00,8.3,-1.5,30.23,North,0,1.1,3.4,64,0.00,,,0.00,WUHU216HW,2013-03-20 07:10:00,
2013-03-20 02:15:00,8.1,-1.6,30.23,NNW,338,0.9,4.0,64,0.00,,,0.00,WUHU216HW,2013-03-20 07:15:00,
2013-03-20 02:20:00,8.1,-1.3,30.23,West,270,3.4,4.0,65,0.00,,,0.00,WUHU216HW,2013-03-20 07:20:00,
2013-03-20 02:25:00,8.1,-1.3,30.23,NNW,338,0.4,4.7,65,0.00,,,0.00,WUHU216HW,2013-03-20 07:25:00,
2013-03-20 02:30:00,8.1,-1.3,30.23,WSW,248,4.0,4.7,65,0.00,,,0.00,WUHU216HW,2013-03-20 07:30:00,
2013-03-20 02:35:00,7.9,-1.5,30.23,SW,225,1.3,4.5,65,0.00,,,0.00,WUHU216HW,2013-03-20 07:35:00,
2013-03-20 02:40:00,7.9,-1.5,30.23,SSW,203,0.4,4.7,65,0.00,,,0.00,WUHU216HW,2013-03-20 07:40:00,
2013-03-20 02:45:00,7.9,-1.2,30.23,West,270,2.2,4.7,66,0.00,,,0.00,WUHU216HW,2013-03-20 07:45:00,
2013-03-20 02:50:00,7.9,-0.8,30.23,NW,315,1.6,4.0,67,0.00,,,0.00,WUHU216HW,2013-03-20 07:50:00,
2013-03-20 02:55:00,7.9,-0.8,30.23,WSW,248,4.7,4.7,67,0.00,,,0.00,WUHU216HW,2013-03-20 07:55:00,
2013-03-20 03:00:00,7.9,-0.8,30.23,NW,315,1.6,6.5,67,0.00,,,0.00,WUHU216HW,2013-03-20 08:00:00,
2013-03-20 03:05:00,7.9,-0.8,30.23,North,0,1.8,6.5,67,0.00,,,0.00,WUHU216HW,2013-03-20 08:05:00,
2013-03-20 03:10:00,7.9,-0.8,30.23,NW,315,3.4,5.1,67,0.00,,,0.00,WUHU216HW,2013-03-20 08:10:00,
2013-03-20 03:15:00,7.9,-0.8,30.23,WSW,248,3.4,5.1,67,0.00,,,0.00,WUHU216HW,2013-03-20 08:15:00,
2013-03-20 03:20:00,7.7,-1.0,30.23,North,0,2.5,4.7,67,0.00,,,0.00,WUHU216HW,2013-03-20 08:20:00,
2013-03-20 03:25:00,7.7,-1.0,30.23,WSW,248,2.2,3.4,67,0.00,,,0.00,WUHU216HW,2013-03-20 08:25:00,
2013-03-20 03:30:00,7.7,-1.0,30.23,SSE,158,3.6,3.6,67,0.00,,,0.00,WUHU216HW,2013-03-20 08:30:00,
2013-03-20 03:35:00,7.7,-1.0,30.23,West,270,1.6,4.9,67,0.00,,,0.00,WUHU216HW,2013-03-20 08:35:00,
2013-03-20 03:40:00,7.7,-1.0,30.23,SSW,203,1.1,5.6,67,0.00,,,0.00,WUHU216HW,2013-03-20 08:40:00,
2013-03-20 03:45:00,7.7,-1.0,30.23,NE,45,0.9,5.6,67,0.00,,,0.00,WUHU216HW,2013-03-20 08:45:00,
2013-03-20 03:50:00,7.7,-1.0,30.23,WNW,293,3.6,4.7,67,0.00,,,0.00,WUHU216HW,2013-03-20 08:50:00,
2013-03-20 03:55:00,7.7,-1.0,30.23,WSW,248,0.7,4.7,67,0.00,,,0.00,WUHU216HW,2013-03-20 08:55:00,
2013-03-20 04:00:00,7.6,-1.5,30.23,North,0,2.9,4.7,66,0.00,,,0.00,WUHU216HW,2013-03-20 09:00:00,
2013-03-20 04:05:00,7.6,-1.2,30.23,WSW,248,1.8,4.9,67,0.00,,,0.00,WUHU216HW,2013-03-20 09:05:00,
2013-03-20 04:10:00,7.6,-1.5,30.23,WSW,248,1.8,4.9,66,0.00,,,0.00,WUHU216HW,2013-03-20 09:10:00,
2013-03-20 04:15:00,7.4,-1.7,30.23,NW,315,3.4,4.0,66,0.00,,,0.00,WUHU216HW,2013-03-20 09:15:00,
2013-03-20 04:20:00,7.4,-1.3,30.23,NNE,23,0.9,4.0,67,0.00,,,0.00,WUHU216HW,2013-03-20 09:20:00,
2013-03-20 04:25:00,7.2,-1.5,30.23,West,270,3.1,5.1,67,0.00,,,0.00,WUHU216HW,2013-03-20 09:25:00,
2013-03-20 04:30:00,7.2,-1.5,30.23,SW,225,1.8,5.1,67,0.00,,,0.00,WUHU216HW,2013-03-20 09:30:00,
2013-03-20 04:35:00,7.2,-1.5,30.23,South,180,1.1,5.8,67,0.00,,,0.00,WUHU216HW,2013-03-20 09:35:00,
2013-03-20 04:40:00,7.0,-1.7,30.23,WSW,248,3.8,5.8,67,0.00,,,0.00,WUHU216HW,2013-03-20 09:40:00,
2013-03-20 04:45:00,7.0,-1.7,30.23,NW,315,2.9,5.1,67,0.00,,,0.00,WUHU216HW,2013-03-20 09:45:00,
2013-03-20 04:50:00,7.0,-1.7,30.23,SW,225,2.9,4.9,67,0.00,,,0.00,WUHU216HW,2013-03-20 09:50:00,
2013-03-20 04:55:00,7.0,-1.7,30.23,NNW,338,0.9,4.3,67,0.00,,,0.00,WUHU216HW,2013-03-20 09:55:00,
2013-03-20 05:00:00,7.0,-1.7,30.23,NNE,23,4.0,4.5,67,0.00,,,0.00,WUHU216HW,2013-03-20 10:00:00,
2013-03-20 05:05:00,7.0,-1.7,30.23,WSW,248,1.8,4.5,67,0.00,,,0.00,WUHU216HW,2013-03-20 10:05:00,
2013-03-20 05:10:00,6.8,-1.5,30.23,NNW,338,2.5,4.9,68,0.00,,,0.00,WUHU216HW,2013-03-20 10:10:00,
2013-03-20 05:15:00,6.8,-1.9,30.23,SSW,203,4.0,4.9,67,0.00,,,0.00,WUHU216HW,2013-03-20 10:15:00,
2013-03-20 05:20:00,7.0,-1.7,30.23,NW,315,1.1,5.6,67,0.00,,,0.00,WUHU216HW,2013-03-20 10:20:00,
2013-03-20 05:25:00,6.8,-1.9,30.24,NE,45,1.8,6.7,67,0.00,,,0.00,WUHU216HW,2013-03-20 10:25:00,
2013-03-20 05:30:00,7.0,-1.7,30.23,WSW,248,2.9,8.3,67,0.00,,,0.00,WUHU216HW,2013-03-20 10:30:00,
2013-03-20 05:35:00,7.0,-1.7,30.23,NNW,338,1.3,8.3,67,0.00,,,0.00,WUHU216HW,2013-03-20 10:35:00,
2013-03-20 05:40:00,7.0,-1.7,30.24,West,270,2.9,6.5,67,0.00,,,0.00,WUHU216HW,2013-03-20 10:40:00,
2013-03-20 05:45:00,6.8,-1.9,30.24,West,270,1.1,5.1,67,0.00,,,0.00,WUHU216HW,2013-03-20 10:45:00,
2013-03-20 05:50:00,6.8,-1.9,30.25,SSW,203,2.7,3.4,67,0.00,,,0.00,WUHU216HW,2013-03-20 10:50:00,
2013-03-20 05:55:00,6.8,-1.9,30.24,West,270,2.5,4.3,67,0.00,,,0.00,WUHU216HW,2013-03-20 10:55:00,
2013-03-20 06:00:00,6.8,-1.9,30.25,SSW,203,1.8,5.1,67,0.00,,,0.00,WUHU216HW,2013-03-20 11:00:00,
2013-03-20 06:05:00,6.7,-2.1,30.25,ESE,113,2.2,5.1,67,0.00,,,0.00,WUHU216HW,2013-03-20 11:05:00,
2013-03-20 06:10:00,6.7,-2.1,30.25,ENE,68,0.7,5.1,67,0.00,,,0.00,WUHU216HW,2013-03-20 11:10:00,
2013-03-20 06:15:00,6.7,-2.1,30.25,West,270,1.1,4.3,67,0.00,,,0.00,WUHU216HW,2013-03-20 11:15:00,
2013-03-20 06:20:00,6.8,-1.9,30.25,NNW,338,1.1,5.4,67,0.00,,,0.00,WUHU216HW,2013-03-20 11:20:00,
2013-03-20 06:25:00,6.8,-1.9,30.25,WSW,248,3.4,5.4,67,0.00,,,0.00,WUHU216HW,2013-03-20 11:25:00,
2013-03-20 06:30:00,6.8,-1.9,30.25,NNW,338,1.1,3.8,67,0.00,,,0.00,WUHU216HW,2013-03-20 11:30:00,
2013-03-20 06:35:00,6.8,-2.1,30.25,North,0,2.5,4.9,66,0.00,,,0.00,WUHU216HW,2013-03-20 11:35:00,
2013-03-20 06:40:00,6.8,-2.1,30.26,NE,45,0.7,4.9,66,0.00,,,0.00,WUHU216HW,2013-03-20 11:40:00,
2013-03-20 06:45:00,6.8,-2.1,30.26,North,0,1.3,4.5,66,0.00,,,0.00,WUHU216HW,2013-03-20 11:45:00,
2013-03-20 06:50:00,6.8,-2.1,30.25,West,270,2.9,4.7,66,0.00,,,0.00,WUHU216HW,2013-03-20 11:50:00,
2013-03-20 06:55:00,6.8,-2.1,30.25,West,270,1.3,4.7,66,0.00,,,0.00,WUHU216HW,2013-03-20 11:55:00,
2013-03-20 07:00:00,6.8,-2.1,30.26,WNW,293,2.5,4.9,66,0.00,,,0.00,WUHU216HW,2013-03-20 12:00:00,
2013-03-20 07:05:00,6.7,-2.3,30.26,NNE,23,0.4,4.9,66,0.00,,,0.00,WUHU216HW,2013-03-20 12:05:00,
2013-03-20 07:10:00,6.7,-2.3,30.26,SSE,158,3.1,5.1,66,0.00,,,0.00,WUHU216HW,2013-03-20 12:10:00,
2013-03-20 07:15:00,6.5,-2.5,30.26,SSW,203,1.1,5.1,66,0.00,,,0.00,WUHU216HW,2013-03-20 12:15:00,
2013-03-20 07:20:00,6.5,-2.5,30.26,WSW,248,3.4,4.5,66,0.00,,,0.00,WUHU216HW,2013-03-20 12:20:00,
2013-03-20 07:25:00,6.5,-2.5,30.26,South,180,1.8,3.8,66,0.00,,,0.00,WUHU216HW,2013-03-20 12:25:00,
2013-03-20 07:30:00,6.3,-2.7,30.26,NNW,338,1.3,3.8,66,0.00,,,0.00,WUHU216HW,2013-03-20 12:30:00,
2013-03-20 07:35:00,6.5,-2.5,30.26,West,270,1.6,3.6,66,0.00,,,0.00,WUHU216HW,2013-03-20 12:35:00,
2013-03-20 07:40:00,6.5,-2.5,30.26,North,0,2.9,3.6,66,0.00,,,0.00,WUHU216HW,2013-03-20 12:40:00,
2013-03-20 07:45:00,6.5,-2.5,30.26,NW,315,1.1,3.8,66,0.00,,,0.00,WUHU216HW,2013-03-20 12:45:00,
2013-03-20 07:50:00,7.0,-2.0,30.26,WSW,248,1.1,3.8,66,0.00,,,0.00,WUHU216HW,2013-03-20 12:50:00,
2013-03-20 07:55:00,7.4,-2.0,30.26,SW,225,2.0,3.8,65,0.00,,,0.00,WUHU216HW,2013-03-20 12:55:00,
2013-03-20 08:00:00,7.6,-2.1,30.26,WNW,293,1.1,3.8,64,0.00,,,0.00,WUHU216HW,2013-03-20 13:00:00,
2013-03-20 08:05:00,7.7,-2.0,30.26,WSW,248,1.8,3.8,64,0.00,,,0.00,WUHU216HW,2013-03-20 13:05:00,
2013-03-20 08:10:00,7.9,-1.8,30.26,NNW,338,4.5,4.5,64,0.00,,,0.00,WUHU216HW,2013-03-20 13:10:00,
2013-03-20 08:15:00,7.9,-1.8,30.25,ENE,68,0.4,4.5,64,0.00,,,0.00,WUHU216HW,2013-03-20 13:15:00,
2013-03-20 08:20:00,8.3,-1.5,30.26,North,0,0.9,4.5,64,0.00,,,0.00,WUHU216HW,2013-03-20 13:20:00,
2013-03-20 08:25:00,8.5,-1.3,30.26,SSE,158,1.1,5.4,64,0.00,,,0.00,WUHU216HW,2013-03-20 13:25:00,
2013-03-20 08:30:00,8.6,-1.5,30.26,West,270,2.5,5.8,63,0.00,,,0.00,WUHU216HW,2013-03-20 13:30:00,
2013-03-20 08:35:00,9.0,-1.2,30.25,WNW,293,1.8,5.8,63,0.00,,,0.00,WUHU216HW,2013-03-20 13:35:00,
2013-03-20 08:40:00,9.5,-0.6,30.26,North,0,1.6,5.6,63,0.00,,,0.00,WUHU216HW,2013-03-20 13:40:00,
2013-03-20 08:45:00,9.7,-0.8,30.26,South,180,0.9,6.3,62,0.00,,,0.00,WUHU216HW,2013-03-20 13:45:00,
2013-03-20 08:50:00,9.9,-0.9,30.26,North,0,1.3,6.3,61,0.00,,,0.00,WUHU216HW,2013-03-20 13:50:00,
2013-03-20 08:55:00,9.9,-0.9,30.26,North,0,1.3,4.3,61,0.00,,,0.00,WUHU216HW,2013-03-20 13:55:00,
2013-03-20 09:00:00,10.8,-0.3,30.25,North,0,0.9,0.9,60,0.00,,,0.00,WUHU216HW,2013-03-20 14:00:00,
2013-03-20 09:05:00,10.8,-0.3,30.25,North,0,0.9,0.9,60,0.00,,,0.00,WUHU216HW,2013-03-20 14:05:00,
2013-03-20 10:00:00,15.3,1.2,30.23,WSW,248,2.2,2.2,53,0.00,,,0.00,WUHU216HW,2013-03-20 15:00:00,
2013-03-20 10:05:00,15.3,1.2,30.23,WSW,248,2.2,2.2,53,0.00,,,0.00,WUHU216HW,2013-03-20 15:05:00,
2013-03-20 11:00:00,17.6,1.3,30.23,West,270,4.7,4.7,48,0.00,,,0.00,WUHU216HW,2013-03-20 16:00:00,
2013-03-20 11:05:00,17.8,1.4,30.23,NW,315,2.9,9.8,48,0.00,,,0.00,WUHU216HW,2013-03-20 16:05:00,
2013-03-20 11:10:00,18.7,2.2,30.23,West,270,3.4,9.8,48,0.00,,,0.00,WUHU216HW,2013-03-20 16:10:00,
2013-03-20 11:15:00,19.6,3.0,30.23,North,0,1.3,5.1,48,0.00,,,0.00,WUHU216HW,2013-03-20 16:15:00,
2013-03-20 11:20:00,19.4,1.9,30.23,West,270,5.6,8.9,46,0.00,,,0.00,WUHU216HW,2013-03-20 16:20:00,
2013-03-20 11:21:00,19.3,1.7,30.23,SSE,158,1.8,4.7,46,0.00,,,0.00,WUHU216HW,2013-03-20 16:21:00,
2013-03-20 11:25:00,19.3,1.7,30.23,SSE,158,1.8,8.9,46,0.00,,,0.00,WUHU216HW,2013-03-20 16:25:00,
2013-03-20 11:30:00,19.3,1.7,30.23,SSE,158,1.8,5.6,46,0.00,,,0.00,WUHU216HW,2013-03-20 16:30:00,
2013-03-20 12:00:00,20.3,2.7,30.22,WSW,248,1.8,1.8,46,0.00,,,0.00,WUHU216HW,2013-03-20 17:00:00,
2013-03-20 12:05:00,20.5,2.9,30.22,NE,45,4.0,8.5,46,0.00,,,0.00,WUHU216HW,2013-03-20 17:05:00,
2013-03-20 12:10:00,20.3,2.7,30.22,NW,315,2.2,8.5,46,0.00,,,0.00,WUHU216HW,2013-03-20 17:10:00,
2013-03-20 12:15:00,21.1,3.3,30.22,NNW,338,3.6,7.6,46,0.00,,,0.00,WUHU216HW,2013-03-20 17:15:00,
2013-03-20 12:20:00,21.1,2.9,30.22,NW,315,4.0,7.2,45,0.00,,,0.00,WUHU216HW,2013-03-20 17:20:00,
2013-03-20 12:25:00,20.7,3.1,30.22,North,0,3.6,7.6,46,0.00,,,0.00,WUHU216HW,2013-03-20 17:25:00,
2013-03-20 12:30:00,20.9,2.7,30.22,NE,45,2.5,7.6,45,0.00,,,0.00,WUHU216HW,2013-03-20 17:30:00,
2013-03-20 12:35:00,21.4,2.8,30.21,NW,315,6.3,9.8,44,0.00,,,0.00,WUHU216HW,2013-03-20 17:35:00,
2013-03-20 12:40:00,20.9,2.3,30.21,NNW,338,2.2,9.8,44,0.00,,,0.00,WUHU216HW,2013-03-20 17:40:00,
2013-03-20 12:45:00,21.2,3.1,30.21,ENE,68,3.6,8.5,45,0.00,,,0.00,WUHU216HW,2013-03-20 17:45:00,
2013-03-20 12:50:00,21.6,3.4,30.21,WSW,248,5.8,7.6,45,0.00,,,0.00,WUHU216HW,2013-03-20 17:50:00,
2013-03-20 12:55:00,20.9,2.3,30.21,NNW,338,5.4,8.5,44,0.00,,,0.00,WUHU216HW,2013-03-20 17:55:00,
2013-03-20 13:00:00,20.7,2.6,30.21,East,90,2.9,8.5,45,0.00,,,0.00,WUHU216HW,2013-03-20 18:00:00,
2013-03-20 13:05:00,20.9,2.7,30.21,SW,225,6.0,8.7,45,0.00,,,0.00,WUHU216HW,2013-03-20 18:05:00,
2013-03-20 13:10:00,21.2,3.1,30.20,WNW,293,7.2,8.7,45,0.00,,,0.00,WUHU216HW,2013-03-20 18:10:00,
2013-03-20 13:15:00,21.6,3.9,30.20,WSW,248,2.5,7.8,46,0.00,,,0.00,WUHU216HW,2013-03-20 18:15:00,
2013-03-20 13:20:00,22.0,3.2,30.20,SW,225,1.8,7.8,44,0.00,,,0.00,WUHU216HW,2013-03-20 18:20:00,
2013-03-20 13:25:00,22.0,3.8,30.20,NW,315,4.0,7.6,45,0.00,,,0.00,WUHU216HW,2013-03-20 18:25:00,
2013-03-20 13:30:00,22.5,3.8,30.19,WNW,293,7.8,7.8,44,0.00,,,0.00,WUHU216HW,2013-03-20 18:30:00,
2013-03-20 13:35:00,22.7,4.0,30.19,West,270,6.5,8.5,44,0.00,,,0.00,WUHU216HW,2013-03-20 18:35:00,
2013-03-20 13:40:00,22.9,4.2,30.19,West,270,2.9,9.8,44,0.00,,,0.00,WUHU216HW,2013-03-20 18:40:00,
2013-03-20 13:45:00,23.0,4.8,30.19,North,0,3.4,9.8,45,0.00,,,0.00,WUHU216HW,2013-03-20 18:45:00,
2013-03-20 13:50:00,22.7,4.0,30.19,WSW,248,3.6,7.6,44,0.00,,,0.00,WUHU216HW,2013-03-20 18:50:00,
2013-03-20 13:55:00,23.2,4.4,30.19,ESE,113,4.0,8.3,44,0.00,,,0.00,WUHU216HW,2013-03-20 18:55:00,
2013-03-20 14:00:00,23.0,4.3,30.19,WSW,248,3.6,8.7,44,0.00,,,0.00,WUHU216HW,2013-03-20 19:00:00,
2013-03-20 14:05:00,22.9,4.2,30.19,WSW,248,8.1,9.8,44,0.00,,,0.00,WUHU216HW,2013-03-20 19:05:00,
2013-03-20 14:10:00,22.5,3.8,30.19,NW,315,6.9,9.8,44,0.00,,,0.00,WUHU216HW,2013-03-20 19:10:00,
2013-03-20 14:15:00,22.5,3.8,30.19,NW,315,6.9,8.5,44,0.00,,,0.00,WUHU216HW,2013-03-20 19:15:00,
2013-03-20 15:00:00,22.9,5.0,30.17,SSE,158,2.5,2.5,46,0.00,,,0.00,WUHU216HW,2013-03-20 20:00:00,
2013-03-20 15:05:00,23.4,5.1,30.17,North,0,2.5,8.9,45,0.00,,,0.00,WUHU216HW,2013-03-20 20:05:00,
2013-03-20 15:10:00,23.2,5.4,30.17,North,0,5.1,8.9,46,0.00,,,0.00,WUHU216HW,2013-03-20 20:10:00,
2013-03-20 15:15:00,23.9,6.0,30.17,West,270,7.4,7.6,46,0.00,,,0.00,WUHU216HW,2013-03-20 20:15:00,
2013-03-20 15:20:00,24.1,6.2,30.17,WNW,293,2.7,8.1,46,0.00,,,0.00,WUHU216HW,2013-03-20 20:20:00,
2013-03-20 15:25:00,24.8,6.8,30.17,ESE,113,2.9,8.1,46,0.00,,,0.00,WUHU216HW,2013-03-20 20:25:00,
2013-03-20 15:30:00,24.8,6.4,30.17,NE,45,6.5,6.9,45,0.00,,,0.00,WUHU216HW,2013-03-20 20:30:00,
2013-03-20 15:35:00,24.7,5.8,30.16,NW,315,7.6,12.1,44,0.00,,,0.00,WUHU216HW,2013-03-20 20:35:00,
2013-03-20 15:40:00,24.5,6.6,30.16,NNE,23,4.0,12.1,46,0.00,,,0.00,WUHU216HW,2013-03-20 20:40:00,
2013-03-20 15:45:00,24.8,6.8,30.16,NE,45,4.0,8.5,46,0.00,,,0.00,WUHU216HW,2013-03-20 20:45:00,
2013-03-20 15:50:00,25.6,7.0,30.16,SSE,158,5.6,6.9,45,0.00,,,0.00,WUHU216HW,2013-03-20 20:50:00,
2013-03-20 15:55:00,25.0,6.6,30.16,West,270,4.5,6.9,45,0.00,,,0.00,WUHU216HW,2013-03-20 20:55:00,
2013-03-20 16:00:00,24.7,6.8,30.16,SE,135,3.4,8.5,46,0.00,,,0.00,WUHU216HW,2013-03-20 21:00:00,
2013-03-20 16:05:00,24.8,6.4,30.16,NW,315,2.5,8.5,45,0.00,,,0.00,WUHU216HW,2013-03-20 21:05:00,
2013-03-20 16:10:00,25.2,6.8,30.16,NE,45,2.2,7.2,45,0.00,,,0.00,WUHU216HW,2013-03-20 21:10:00,
2013-03-20 16:15:00,25.9,6.8,30.16,NNW,338,4.9,5.4,44,0.00,,,0.00,WUHU216HW,2013-03-20 21:15:00,
2013-03-20 16:20:00,25.6,6.6,30.16,East,90,1.8,6.3,44,0.00,,,0.00,WUHU216HW,2013-03-20 21:20:00,
2013-03-20 16:25:00,25.2,6.2,30.16,North,0,2.5,6.9,44,0.00,,,0.00,WUHU216HW,2013-03-20 21:25:00,
2013-03-20 16:30:00,25.4,6.8,30.16,WSW,248,4.0,7.2,45,0.00,,,0.00,WUHU216HW,2013-03-20 21:30:00,
2013-03-20 16:35:00,24.8,6.4,30.16,East,90,2.7,10.5,45,0.00,,,0.00,WUHU216HW,2013-03-20 21:35:00,
2013-03-20 16:40:00,24.8,6.4,30.16,West,270,6.0,10.5,45,0.00,,,0.00,WUHU216HW,2013-03-20 21:40:00,
2013-03-20 16:45:00,24.8,6.4,30.16,ESE,113,3.6,6.9,45,0.00,,,0.00,WUHU216HW,2013-03-20 21:45:00,
2013-03-20 16:50:00,24.7,6.2,30.16,SW,225,4.0,9.8,45,0.00,,,0.00,WUHU216HW,2013-03-20 21:50:00,
2013-03-20 16:55:00,24.7,6.2,30.16,ENE,68,2.5,9.8,45,0.00,,,0.00,WUHU216HW,2013-03-20 21:55:00,
2013-03-20 17:00:00,24.8,6.4,30.16,SW,225,4.7,7.4,45,0.00,,,0.00,WUHU216HW,2013-03-20 22:00:00,
2013-03-20 17:05:00,24.8,6.4,30.16,WSW,248,3.1,7.4,45,0.00,,,0.00,WUHU216HW,2013-03-20 22:05:00,
2013-03-20 17:10:00,25.0,7.0,30.16,WSW,248,5.8,6.9,46,0.00,,,0.00,WUHU216HW,2013-03-20 22:10:00,
2013-03-20 17:15:00,24.7,6.8,30.16,North,0,3.8,8.7,46,0.00,,,0.00,WUHU216HW,2013-03-20 22:15:00,
2013-03-20 17:20:00,24.5,6.6,30.16,NNW,338,6.9,8.7,46,0.00,,,0.00,WUHU216HW,2013-03-20 22:20:00,
2013-03-20 17:25:00,24.7,6.2,30.16,West,270,6.5,7.2,45,0.00,,,0.00,WUHU216HW,2013-03-20 22:25:00,
2013-03-20 17:30:00,24.3,6.0,30.16,West,270,2.7,7.2,45,0.00,,,0.00,WUHU216HW,2013-03-20 22:30:00,
2013-03-20 17:35:00,24.1,6.2,30.16,West,270,2.7,6.9,46,0.00,,,0.00,WUHU216HW,2013-03-20 22:35:00,
2013-03-20 17:40:00,24.1,6.2,30.16,North,0,4.7,6.9,46,0.00,,,0.00,WUHU216HW,2013-03-20 22:40:00,
2013-03-20 17:45:00,24.3,6.4,30.16,NNW,338,3.6,6.3,46,0.00,,,0.00,WUHU216HW,2013-03-20 22:45:00,
2013-03-20 17:50:00,23.9,6.0,30.16,SW,225,4.0,6.9,46,0.00,,,0.00,WUHU216HW,2013-03-20 22:50:00,
2013-03-20 17:55:00,23.8,6.4,30.16,ENE,68,0.9,6.9,47,0.00,,,0.00,WUHU216HW,2013-03-20 22:55:00,
2013-03-20 18:00:00,23.8,6.4,30.16,WNW,293,2.5,5.8,47,0.00,,,0.00,WUHU216HW,2013-03-20 23:00:00,
2013-03-20 18:05:00,23.4,6.0,30.16,WSW,248,4.0,5.8,47,0.00,,,0.00,WUHU216HW,2013-03-20 23:05:00,
2013-03-20 18:10:00,23.0,6.2,30.16,West,270,1.6,5.6,48,0.00,,,0.00,WUHU216HW,2013-03-20 23:10:00,
2013-03-20 18:15:00,23.2,6.0,30.16,NNW,338,2.2,6.9,47,0.00,,,0.00,WUHU216HW,2013-03-20 23:15:00,
2013-03-20 18:20:00,22.5,5.7,30.16,NNW,338,1.3,7.2,48,0.00,,,0.00,WUHU216HW,2013-03-20 23:20:00,
2013-03-20 18:25:00,22.0,5.7,30.16,WSW,248,3.1,7.2,49,0.00,,,0.00,WUHU216HW,2013-03-20 23:25:00,
2013-03-20 18:30:00,21.4,5.6,30.16,West,270,3.8,4.9,50,0.00,,,0.00,WUHU216HW,2013-03-20 23:30:00,
2013-03-20 18:35:00,21.1,5.7,30.16,South,180,1.8,5.4,51,0.00,,,0.00,WUHU216HW,2013-03-20 23:35:00,
2013-03-20 18:40:00,20.9,6.0,30.16,West,270,4.0,5.4,52,0.00,,,0.00,WUHU216HW,2013-03-20 23:40:00,
2013-03-20 18:45:00,20.3,5.4,30.16,NW,315,2.5,5.4,52,0.00,,,0.00,WUHU216HW,2013-03-20 23:45:00,
2013-03-20 18:50:00,20.2,5.7,30.16,ENE,68,0.4,5.8,53,0.00,,,0.00,WUHU216HW,2013-03-20 23:50:00,
2013-03-20 18:55:00,20.0,5.5,30.16,WNW,293,1.1,5.8,53,0.00,,,0.00,WUHU216HW,2013-03-20 23:55:00,
2013-03-20 19:00:00,19.4,5.4,30.16,SSW,203,2.5,4.9,54,0.00,,,0.00,WUHU216HW,2013-03-21 00:00:00,
2013-03-20 19:05:00,19.1,5.0,30.15,WNW,293,0.9,4.7,54,0.00,,,0.00,WUHU216HW,2013-03-21 00:05:00,
2013-03-20 19:10:00,18.9,5.3,30.15,ESE,113,1.1,4.7,55,0.00,,,0.00,WUHU216HW,2013-03-21 00:10:00,
2013-03-20 19:15:00,18.4,4.8,30.16,SE,135,1.3,4.7,55,0.00,,,0.00,WUHU216HW,2013-03-21 00:15:00,
2013-03-20 19:20:00,17.8,4.7,30.15,WNW,293,4.3,4.7,56,0.00,,,0.00,WUHU216HW,2013-03-21 00:20:00,
2013-03-20 19:25:00,16.9,4.2,30.16,West,270,1.8,4.7,57,0.00,,,0.00,WUHU216HW,2013-03-21 00:25:00,
2013-03-20 19:30:00,16.6,4.7,30.16,East,90,1.3,4.5,59,0.00,,,0.00,WUHU216HW,2013-03-21 00:30:00,
2013-03-20 19:35:00,16.2,4.3,30.16,WSW,248,3.1,4.5,59,0.00,,,0.00,WUHU216HW,2013-03-21 00:35:00,
2013-03-20 19:40:00,15.8,4.7,30.16,WNW,293,2.5,4.0,61,0.00,,,0.00,WUHU216HW,2013-03-21 00:40:00,
2013-03-20 19:45:00,15.7,4.5,30.16,WSW,248,1.3,4.0,61,0.00,,,0.00,WUHU216HW,2013-03-21 00:45:00,
2013-03-20 19:50:00,15.5,4.3,30.16,West,270,2.5,4.0,61,0.00,,,0.00,WUHU216HW,2013-03-21 00:50:00,
2013-03-20 19:55:00,15.3,4.1,30.16,WNW,293,3.6,3.8,61,0.00,,,0.00,WUHU216HW,2013-03-21 00:55:00,
2013-03-20 20:00:00,15.1,4.1,30.16,West,270,0.9,4.5,61,0.00,,,0.00,WUHU216HW,2013-03-21 01:00:00,
2013-03-20 20:05:00,14.9,3.5,30.16,NE,45,0.7,4.5,60,0.00,,,0.00,WUHU216HW,2013-03-21 01:05:00,
2013-03-20 20:10:00,14.8,3.7,30.16,WSW,248,2.9,2.9,61,0.00,,,0.00,WUHU216HW,2013-03-21 01:10:00,
2013-03-20 20:15:00,14.6,3.5,30.16,NW,315,2.2,2.9,61,0.00,,,0.00,WUHU216HW,2013-03-21 01:15:00,
2013-03-20 20:20:00,14.4,3.3,30.16,WNW,293,0.9,2.9,61,0.00,,,0.00,WUHU216HW,2013-03-21 01:20:00,
2013-03-20 20:25:00,14.0,3.7,30.16,West,270,1.8,2.9,63,0.00,,,0.00,WUHU216HW,2013-03-21 01:25:00,
2013-03-20 20:30:00,14.0,3.4,30.16,NNW,338,2.9,2.9,62,0.00,,,0.00,WUHU216HW,2013-03-21 01:30:00,
2013-03-20 20:35:00,13.9,3.3,30.16,NNW,338,2.0,3.6,62,0.00,,,0.00,WUHU216HW,2013-03-21 01:35:00,
2013-03-20 20:40:00,13.9,3.3,30.16,WSW,248,0.4,3.8,62,0.00,,,0.00,WUHU216HW,2013-03-21 01:40:00,
2013-03-20 20:45:00,13.7,3.7,30.16,West,270,2.2,4.0,64,0.00,,,0.00,WUHU216HW,2013-03-21 01:45:00,
2013-03-20 20:50:00,13.3,3.3,30.16,WSW,248,1.1,4.0,64,0.00,,,0.00,WUHU216HW,2013-03-21 01:50:00,
2013-03-20 20:55:00,13.3,3.3,30.16,West,270,2.2,3.8,64,0.00,,,0.00,WUHU216HW,2013-03-21 01:55:00,
2013-03-20 21:00:00,13.1,3.2,30.16,NNW,338,2.5,3.8,64,0.00,,,0.00,WUHU216HW,2013-03-21 02:00:00,
2013-03-20 21:05:00,13.1,3.2,30.16,WNW,293,2.5,3.4,64,0.00,,,0.00,WUHU216HW,2013-03-21 02:05:00,
2013-03-20 21:10:00,13.0,3.0,30.16,WNW,293,2.5,3.8,64,0.00,,,0.00,WUHU216HW,2013-03-21 02:10:00,
2013-03-20 21:15:00,12.8,3.2,30.16,NW,315,2.5,3.8,65,0.00,,,0.00,WUHU216HW,2013-03-21 02:15:00,
2013-03-20 21:20:00,12.8,2.8,30.16,NE,45,0.7,3.1,64,0.00,,,0.00,WUHU216HW,2013-03-21 02:20:00,
2013-03-20 21:25:00,12.6,2.6,30.16,NW,315,0.2,3.4,64,0.00,,,0.00,WUHU216HW,2013-03-21 02:25:00,
2013-03-20 21:30:00,12.6,2.6,30.16,ENE,68,1.1,3.4,64,0.00,,,0.00,WUHU216HW,2013-03-21 02:30:00,
2013-03-20 21:35:00,12.6,2.6,30.16,SSW,203,0.4,2.0,64,0.00,,,0.00,WUHU216HW,2013-03-21 02:35:00,
2013-03-20 21:40:00,12.6,3.0,30.16,NE,45,1.1,2.7,65,0.00,,,0.00,WUHU216HW,2013-03-21 02:40:00,
2013-03-20 21:45:00,12.4,2.8,30.16,ESE,113,1.1,3.4,65,0.00,,,0.00,WUHU216HW,2013-03-21 02:45:00,
2013-03-20 21:50:00,12.4,2.8,30.16,NE,45,1.3,3.4,65,0.00,,,0.00,WUHU216HW,2013-03-21 02:50:00,
2013-03-20 21:55:00,12.2,3.0,30.16,WSW,248,1.1,3.6,66,0.00,,,0.00,WUHU216HW,2013-03-21 02:55:00,
2013-03-20 22:00:00,12.2,3.0,30.16,WNW,293,4.0,4.0,66,0.00,,,0.00,WUHU216HW,2013-03-21 03:00:00,
2013-03-20 22:05:00,12.1,2.8,30.15,North,0,0.4,4.0,66,0.00,,,0.00,WUHU216HW,2013-03-21 03:05:00,
2013-03-20 22:10:00,12.1,2.4,30.15,NW,315,0.9,3.4,65,0.00,,,0.00,WUHU216HW,2013-03-21 03:10:00,
2013-03-20 22:15:00,12.1,2.8,30.15,West,270,2.5,3.1,66,0.00,,,0.00,WUHU216HW,2013-03-21 03:15:00,
2013-03-20 22:20:00,12.1,2.4,30.16,West,270,3.4,3.8,65,0.00,,,0.00,WUHU216HW,2013-03-21 03:20:00,
2013-03-20 22:25:00,11.9,2.3,30.16,West,270,1.6,4.0,65,0.00,,,0.00,WUHU216HW,2013-03-21 03:25:00,
2013-03-20 22:30:00,11.9,2.3,30.16,NE,45,2.2,4.0,65,0.00,,,0.00,WUHU216HW,2013-03-21 03:30:00,
2013-03-20 22:35:00,11.7,2.1,30.16,NW,315,2.2,2.5,65,0.00,,,0.00,WUHU216HW,2013-03-21 03:35:00,
2013-03-20 22:40:00,11.5,1.9,30.16,NNW,338,1.6,2.5,65,0.00,,,0.00,WUHU216HW,2013-03-21 03:40:00,
2013-03-20 22:45:00,11.3,1.8,30.16,East,90,2.2,2.2,65,0.00,,,0.00,WUHU216HW,2013-03-21 03:45:00,
2013-03-20 22:50:00,11.3,1.8,30.16,North,0,0.4,2.7,65,0.00,,,0.00,WUHU216HW,2013-03-21 03:50:00,
2013-03-20 22:55:00,11.2,1.9,30.16,ENE,68,1.1,2.7,66,0.00,,,0.00,WUHU216HW,2013-03-21 03:55:00,
2013-03-20 23:00:00,11.2,1.9,30.16,WSW,248,2.0,2.2,66,0.00,,,0.00,WUHU216HW,2013-03-21 04:00:00,
2013-03-20 23:05:00,11.0,1.7,30.16,NE,45,0.4,2.2,66,0.00,,,0.00,WUHU216HW,2013-03-21 04:05:00,
2013-03-20 23:10:00,10.8,1.3,30.16,ESE,113,0.7,2.2,65,0.00,,,0.00,WUHU216HW,2013-03-21 04:10:00,
2013-03-20 23:15:00,10.8,1.5,30.16,NNW,338,0.0,1.8,66,0.00,,,0.00,WUHU216HW,2013-03-21 04:15:00,
2013-03-20 23:20:00,10.6,1.5,30.16,WSW,248,0.4,1.8,66,0.00,,,0.00,WUHU216HW,2013-03-21 04:20:00,
2013-03-20 23:25:00,10.4,1.3,30.16,NW,315,0.2,1.1,66,0.00,,,0.00,WUHU216HW,2013-03-21 04:25:00,
2013-03-20 23:30:00,10.4,1.5,30.16,WSW,248,1.8,1.8,67,0.00,,,0.00,WUHU216HW,2013-03-21 04:30:00,
2013-03-20 23:35:00,10.3,1.4,30.16,SW,225,0.9,1.8,67,0.00,,,0.00,WUHU216HW,2013-03-21 04:35:00,
2013-03-20 23:40:00,9.9,1.1,30.16,SSW,203,0.2,1.8,67,0.00,,,0.00,WUHU216HW,2013-03-21 04:40:00,
2013-03-20 23:45:00,9.5,0.4,30.16,WSW,248,0.0,1.1,66,0.00,,,0.00,WUHU216HW,2013-03-21 04:45:00,
2013-03-20 23:50:00,9.0,-0.1,30.16,WSW,248,0.4,1.1,66,0.00,,,0.00,WUHU216HW,2013-03-21 04:50:00,
2013-03-20 23:55:00,8.8,0.0,30.16,SW,225,1.1,1.6,67,0.00,,,0.00,WUHU216HW,2013-03-21 04:55:00,